Location: Alafon
(8.4500°N, 4.2333°E)
Time: 00:16:12
(UTC+00:00)

ARGOS - Pass Details

Date: 05 July 2020
Orbit: 819 x 835 km, 98.5° (Epoch: 06 August)

Event Time Altitude Azimuth Distance (km) Brightness Sun altitude
Exits shadow 19:01:07 18° 125° (SE) 1,930 4.4 -13.3°
Maximum altitude 19:04:13 31° 76° (ENE) 1,426 4.0 -14.0°
Drops below altitude 10° 19:08:54 10° 15° (NNE) 2,438 5.7 -15.0°
Sets 19:11:30 0° 6° (N) 3,371 6.6 -15.6°
